Regional Weather Roundup
Issued by NWS

Home | Current Version | Previous Version | Text Only | Print | Product List | Glossary On
Versions: 1 2 3 4 5 6 7 8 9 10 11 12 13 14 15 16 17 18 19 20 21 22 23 24 25 26 27 28 29 30 31 32 33 34 35 36 37 38 39 40 41 42 43 44 45 46 47 48 49 50
000
ASUS45 KBOU 242207
RWRCO

WEATHER ROUNDUP FOR COLORADO
NATIONAL WEATHER SERVICE DENVER/BOULDER CO
300 PM MST MON NOV 24 2014

NOTE: "FAIR" INDICATES FEW OR NO CLOUDS BELOW 12000 FEET WITH NO
SIGNIFICANT WEATHER AND/OR OBSTRUCTIONS TO VISIBILITY.

COZ001>005-013-030-031-242300-
...NORTHWEST COLORADO...

CITY           SKY/WX    TMP DP  RH WIND       PRES   REMARKS
CRAIG          MOSUNNY   25  16  68 SW7       30.20R WCI  17
HAYDEN         MOSUNNY   27  12  54 W14       30.16R WCI  15
MEEKER         HVY SNOW  26  21  81 N12G26    30.21R VSB 1/4 WCI  16
MOUNT WERNER   NOT AVBL
STEAMBOAT SPGS PTSUNNY   25  15  64 W13G18    30.15R WCI  14
WALDEN         CLOUDY    21  14  73 NW24G33   30.09R VSB 1   WCI   4
$$

COZ006>008-011-242300-
...WEST CENTRAL VALLEYS...

CITY           SKY/WX    TMP DP  RH WIND       PRES   REMARKS
GRAND JUNCTION MOSUNNY   39  17  41 N9        30.21R
MONTROSE       PTSUNNY   34  20  56 NW7       30.22R WCI  28
EAGLE          LGT SNOW  27  21  80 W6        30.20R FOG     WCI  20
RIFLE          LGT SNOW  29  24  82 SW6       30.22R WCI  23
DELTA          PTSUNNY   42  18  38 N12G18    30.21R
NUCLA          PTSUNNY   34  18  51 NW20      30.25R WCI  22
$$

COZ017>023-064>068-242300-
...SOUTHWEST COLORADO...

CITY           SKY/WX    TMP DP  RH WIND       PRES   REMARKS
DURANGO        MOSUNNY   35  12  38 N26G37    30.11R WCI  22
CORTEZ         SUNNY     38  13  35 N20G26    30.18R
PAGOSA SPRINGS PTSUNNY   31   1  28 N6        30.10R WCI  25
TELLURIDE      LGT SNOW  19  11  69 N8G22     30.15R WCI   9
WOLF CREEK PAS SNOW       5   1  85 MISG      30.02R VSB 1/2
$$

COZ009-010-012-014-032>034-037-058>063-242300-
...CENTRAL COLORADO...

CITY           SKY/WX    TMP DP  RH WIND       PRES   REMARKS
ASPEN          LGT SNOW  22  15  75 N9G20     30.13R WCI  12
BUENA VISTA    LGT SNOW  22  16  78 NW13      30.09R WCI  10
COPPER MTN     CLOUDY    10   3  72 MISG      29.98R
BERTHOUD PASS  HVY SNOW   1  -4  78 NW33      29.93S WCI -25
COTTONWOOD PAS LGT SNOW  19  14  79 CALM      30.05R VSB 3/4
GUNNISON       PTSUNNY   25  10  54 N15G21    30.15R WCI  12
KREMMLING      LGT SNOW  23  16  74 NW9G17    30.14R WCI  13
LEADVILLE      CLOUDY    13   6  74 W10G16    30.03R WCI   0
MONARCH PASS     N/A      7   3  85 MISG      30.10R
SALIDA         PTSUNNY   32   7  34 N20       30.14R WCI  20
SUNLIGHT       CLOUDY   N/A N/A N/A CALM      30.10R
WILKERSON PASS PTSUNNY   12  -2  52 N15G29    29.99S HAZE    WCI  -4
$$

COZ069>075-242300-
...SAN LUIS VALLEY/SANGRE DE CRISTO MOUNTAINS...

CITY           SKY/WX    TMP DP  RH WIND       PRES   REMARKS
ALAMOSA        PTSUNNY   31   2  29 NW16G24   30.06R WCI  20
LA VETA PASS   PTSUNNY   21   3  45 SW3       29.99R
SAGUACHE       NOT AVBL
$$

COZ035-036-038>040-242300-
...NORTHERN COLORADO FRONT RANGE...

CITY           SKY/WX    TMP DP  RH WIND       PRES   REMARKS
DENVER INTL AP CLOUDY    37  13  37 N28G35    30.04R
DMNS CITY PARK   N/A     37  17  44 N15G24    30.07R
AURORA         FLURRIES  36  13  39 N18       30.05R
FRONT RANGE AP PTSUNNY   39  14  35 N22G33    30.04
ERIE MUNI ARPT PTSUNNY   37  12  35 N21G29    30.06R
BOULDER MUN AP PTSUNNY   37  14  38 N14       30.05R
CENTENNIAL     PTSUNNY   34  13  41 NW16      30.04R WCI  24
BROOMFIELD     PTSUNNY   39  12  33 N14G25    30.05R
FORT COLLINS   PTSUNNY   37  14  38 NW23G30   30.09R
LONGMONT       PTSUNNY   39  15  38 N14       30.08R
$$

COZ041-046-047-076>085-087-088-242300-
...PIKES PEAK/PALMER DIVIDE AND SOUTHERN FOOTHILLS...

CITY           SKY/WX    TMP DP  RH WIND       PRES   REMARKS
COLO. SPRINGS  CLOUDY    37   1  22 N15       30.02R
A. F. ACADEMY  CLOUDY    33   2  26 NW15G21   30.01R WCI  23
ELLICOTT       NOT AVBL
FALCON         NOT AVBL
FORT CARSON    NOT AVBL
LIMON          LGT SNOW  31  22  69 N29G40    30.02R WCI  16
MONUMENT HILL  LGT SNOW  27  19  74 N18G32    30.03R WCI  13
TRINIDAD       PTSUNNY   36  16  44 NW7       30.02R
$$

COZ042>045-048>051-090-091-242300-
...NORTHEAST COLORADO...

CITY           SKY/WX    TMP DP  RH WIND       PRES   REMARKS
GREELEY ARPT   PTSUNNY   37  16  41 N33G44    30.09R
AKRON          CLOUDY    37  20  50 NW25G36   30.02R
BURLINGTON     PTSUNNY   42  16  34 NW28G39   29.99R
WRAY           PTSUNNY   44  21  40 NW22G36   29.99R
STERLING       CLOUDY    39  28  65 N26G33    30.02R
HOLYOKE        PTSUNNY   37  32  81 NW18G28   30.01R
FORT MORGAN    CLOUDY    36  20  51 NW25G35   30.06R
$$

COZ086-089-092>099-242300-
...SOUTHEAST COLORADO...

CITY           SKY/WX    TMP DP  RH WIND       PRES   REMARKS
PUEBLO         CLOUDY    44   7  21 N16G24    30.02R
LA JUNTA       PTSUNNY   48   9  20 N20G26    30.01R
LAMAR          MOSUNNY   48  12  23 N12       29.98R
SPRINGFIELD      N/A     44   9  23 N15       29.99R
$$


USA.gov is the U.S. government's official web portal to all federal, state and local government web resources and services.